Location: ??????????
(44.2167°N, 135.5333°E)
Time: 14:26:51
(UTC+00:00)

Landsat 5 - Pass Details

Date: 15 June 2025
Orbit: 509 x 611 km, 98.1° (Epoch: 15 July)

Event Time Altitude Azimuth Distance (km) Brightness Sun altitude
Rises 13:27:12 0° 22° (NNE) 2,868 7.7 -19.3°
Reaches altitude 10° 13:29:36 10° 32° (NNE) 1,949 6.6 -19.5°
Maximum altitude 13:33:24 32° 96° (E) 1,025 4.4 -19.7°
Enters shadow 13:33:36 32° 102° (ESE) 1,027 4.4 -19.7°
